This is the latest recevied weather packets stored in our database for station/object 9M4GEK-3. If no packets are shown the sender has not sent any weather packets the latest 10 day(s).
| Time | Temp. | Humidity | Pressure | Rain* | Wind** | Luminosity | Snow |
|---|---|---|---|---|---|---|---|
| 1787812566 | 41.67° C | 31% | 1008.9 hPa | - | - | - | - |
| 1787811667 | 42.22° C | 30% | 1009.3 hPa | - | - | - | - |
| 1787810766 | 42.22° C | 31% | 1009.5 hPa | - | - | - | - |
| 1787809866 | 42.22° C | 32% | 1009.7 hPa | - | - | - | - |
| 1787808966 | 42.78° C | 32% | 1009.9 hPa | - | - | - | - |
| 1787808066 | 40° C | 35% | 1010.3 hPa | - | - | - | - |
| 1787807165 | 42.22° C | 32% | 1010.6 hPa | - | - | - | - |
| 1787806265 | 42.78° C | 31% | 1010.9 hPa | - | - | - | - |
| 1787805449 | 41.11° C | 33% | 1011.1 hPa | - | - | - | - |
| 1787805364 | 41.11° C | 33% | 1011.1 hPa | - | - | - | - |
| 1787804470 | 40.56° C | 34% | 1011.3 hPa | - | - | - | - |
| 1787803564 | 44.44° C | 29% | 1011.6 hPa | - | - | - | - |
| 1787802663 | 45° C | 31% | 1011.8 hPa | - | - | - | - |
| 1787801763 | 42.22° C | 34% | 1012.1 hPa | - | - | - | - |
| 1787800863 | 42.78° C | 33% | 1012.1 hPa | - | - | - | - |
| 1787799963 | 42.78° C | 33% | 1012.3 hPa | - | - | - | - |
| 1787799062 | 41.67° C | 38% | 1012.3 hPa | - | - | - | - |
| 1787798162 | 36.67° C | 46% | 1012.4 hPa | - | - | - | - |
| 1787797261 | 37.22° C | 46% | 1012.4 hPa | - | - | - | - |
| 1787796361 | 35.56° C | 50% | 1012.3 hPa | - | - | - | - |
| 1787796305 | 30° C | 62% | 1011 hPa | - | - | - | - |
| 1787795850 | 28.89° C | 64% | 1011 hPa | - | - | - | - |
| 1787795532 | 27.78° C | 67% | 1010.9 hPa | - | - | - | - |
| 1787795460 | 37.78° C | 47% | 1012.4 hPa | - | - | - | - |
| 1787795341 | 27.78° C | 67% | 1010.8 hPa | - | - | - | - |
* Rain since midnight (hover to see other rain measurements)
** Current wind speed in m/s (hover to see current wind gust speed)